Regional Weather Roundup
Issued by NWS

Home | Current Version | Previous Version | Text Only | Print | Product List | Glossary On
Versions: 1 2 3 4 5 6 7 8 9 10 11 12 13 14 15 16 17 18 19 20 21 22 23 24 25 26 27 28 29 30 31 32 33 34 35 36 37 38 39 40 41 42 43 44 45 46 47 48 49 50
187
ASUS46 KSTO 240104
RWRCA

NORTHERN AND CENTRAL CA REGIONAL WEATHER ROUNDUP
NATIONAL WEATHER SERVICE SACRAMENTO CA
600 PM PDT SAT JUL 23 2016

NOTE: FAIR INDICATES FEW OR NO CLOUDS BELOW 12,000 FEET WITH NO
SIGNIFICANT WEATHER AND/OR OBSTRUCTIONS TO VISIBILITY.

CAZ001-003-240200-
NORTHWEST AREA

CITY           SKY/WX    TMP DP  RH WIND       PRES   REMARKS
CRESCENT CITY  SUNNY     61  53  75 N20G29    30.01F
UKIAH          SUNNY     94  43  17 VRB6      29.87F HX  90
$$

CAZ006-505>513-240200-
BAY AREA

CITY           SKY/WX    TMP DP  RH WIND       PRES   REMARKS
SANTA ROSA     SUNNY     88  52  29 SE13      29.81F
SAN RAFAEL     N/A       92  MM  MM MISG
NAPA           SUNNY     83  54  36 S13       29.83F
CONCORD        SUNNY     97  43  15 W10       29.82F HX  93
OAKLAND CITY   N/A       77  MM  MM MISG
OAKLAND        SUNNY     72  56  57 W16       29.87F
SAN FRAN CITY  N/A       65  MM  62 MISG
SAN FRAN ARPT  SUNNY     68  51  54 W25       29.87F
LIVERMORE      SUNNY     93  45  19 W16       29.84F
HAYWARD        SUNNY     75  53  46 W12       29.87F
REDWOOD CITY   N/A       MM  MM  MM MISG
MOFFETT ARPT   SUNNY     75  59  57 N10       29.87F
SAN JOSE ARPT  SUNNY     85  54  34 W13       29.85F
$$
CAZ034-037-514>518-240200-
CENTRAL COAST

CITY           SKY/WX    TMP DP  RH WIND       PRES   REMARKS
WATSONVILLE    SUNNY     64  54  69 S8        29.88F
SALINAS        SUNNY     66  53  63 NW15      29.88F
MONTEREY       SUNNY     65  52  62 W10       29.91F
SAN LUIS OBISP SUNNY     72  52  49 NW15      29.79F
SANTA MARIA    SUNNY     66  53  63 NW10      29.81F
$$
CAZ015-016-240200-
NORTHERN SACRAMENTO VALLEY

CITY           SKY/WX    TMP DP  RH WIND       PRES   REMARKS
REDDING        SUNNY    105  28   7 NE5       29.80F HX  98
RED BLUFF      SUNNY    105  29   7 N6        29.80F HX  98
OROVILLE       SUNNY     99  53  21 CALM      29.80F HX  96
$$
CAZ016>018-240200-
SOUTHERN SACRAMENTO VALLEY

CITY           SKY/WX    TMP DP  RH WIND       PRES   REMARKS
AUBURN         SUNNY     97  34  11 NW6       29.92F HX  91
BEALE AFB      SUNNY    101  39  12 NW5       29.78F HX  96
LINCOLN        FAIR     100  34  10 W6        29.78F HX  94
MARYSVILLE     SUNNY    101  41  12 NW5       29.78F HX  96
SAC INTL ARPT  SUNNY     99  42  14 W6        29.79F HX  94
MATHER AIRPORT NOT AVBL
DOWNTOWN SAC   N/A      104  MM  MM MISG
SAC EXEC ARPT  SUNNY    101  42  13 W6        29.79F HX  96
VACAVILLE      SUNNY    100  48  17 SW7       29.81F HX  96
TRAVIS AFB     SUNNY     96  49  20 SW16      29.78F HX  92
$$
CAZ019>021-240200-
SAN JOAQUIN VALLEY

CITY           SKY/WX    TMP DP  RH WIND       PRES   REMARKS
STOCKTON       SUNNY    100  45  15 NW12      29.79F HX  96
MODESTO        SUNNY    101  40  12 NW14      29.79F HX  96
MERCED         SUNNY     99  43  14 NW14G22   29.78F HX  95
FRESNO         SUNNY     99  45  15 NW7       29.80F HX  95
HANFORD        MOSUNNY   98  46  17 N8        29.80F HX  94
PORTERVILLE    SUNNY     98  46  17 VRB7      29.81F HX  94
BAKERSFIELD    SUNNY     97  39  13 NW7       29.81F HX  92
$$
CAZ011-012-071-240200-
NORTHERN MOUNTAINS

CITY           SKY/WX    TMP DP  RH WIND       PRES   REMARKS
YREKA          SUNNY     91  37  15 N12       30.04F
MOUNT SHASTA   SUNNY     84  40  21 MISG      30.07F
ALTURAS        PTSUNNY   88  22   9 CALM      30.09F
$$
CAZ011-012-071-240200-
SIERRA NEVADA MTNS

CITY           SKY/WX    TMP DP  RH WIND       PRES   REMARKS
BLUE CANYON    SUNNY     80  29  15 VRB7      30.18F
TRUCKEE        SUNNY     84  27  12 W13       30.19F
TAHOE VLY ARPT SUNNY     82  27  13 MISG      30.21F
MAMMOTH LAKES    N/A     86  19   8 W17       30.24F
$$




USA.gov is the U.S. government's official web portal to all federal, state and local government web resources and services.